SES-3

Last updated on Thu Oct 16 2025 00:02:46 GMT+0000 (Coordinated Universal Time)

1 37748U 11035A 25288.60776046 -.00000116 00000+0 00000+0 0 9997 2 37748 0.6911 85.5046 0001916 134.0622 280.6175 1.00271331 52140
UTC large
Height (km)
Speed (km/s)
/
Latitude / Longitude
Inclination (degrees)
Orbital Period (minutes)
Azimuth
Elevation
Range (km)
Doppler Factor

Next 0 passes for location: London (51.5072 / 0.1276)

Sorry there are no passes over London.